Regional Weather Roundup
Issued by NWS

Home | Current Version | Previous Version | Graphics & Text | Print | Product List | Glossary On
Versions: 1 2 3 4 5 6 7 8 9 10 11 12 13 14 15 16 17 18 19 20 21 22 23 24 25 26 27 28 29 30 31 32 33 34 35 36 37 38 39 40 41 42 43 44 45 46 47 48 49 50
000
ASUS45 KBOU 250507
RWRCO

WEATHER ROUNDUP FOR COLORADO
NATIONAL WEATHER SERVICE DENVER/BOULDER CO
1100 PM MDT THU JUL 24 2014

NOTE: "FAIR" INDICATES FEW OR NO CLOUDS BELOW 12000 FEET WITH NO
SIGNIFICANT WEATHER AND/OR OBSTRUCTIONS TO VISIBILITY.

COZ001>005-013-030-031-250600-
...NORTHWEST COLORADO...

CITY           SKY/WX    TMP DP  RH WIND       PRES   REMARKS
CRAIG          PTCLDY    62  50  64 S8        30.19R
HAYDEN         PTCLDY    66  43  42 E7        30.22R
MEEKER         PTCLDY    63  52  67 NE7       30.23S
MOUNT WERNER   NOT AVBL
STEAMBOAT SPGS PTCLDY    66  51  59 CALM      30.26R
WALDEN         PTCLDY    55  46  71 E9        30.35R
$$

COZ006>008-011-250600-
...WEST CENTRAL VALLEYS...

CITY           SKY/WX    TMP DP  RH WIND       PRES   REMARKS
GRAND JUNCTION PTCLDY    78  51  38 SE15      30.09R
MONTROSE       CLOUDY    75  51  43 SE15      30.24R
EAGLE          MOCLDY    63  55  77 S10       30.36R
RIFLE          MOCLDY    74  50  42 E12       30.18R
DELTA          CLOUDY    75  51  42 NE8       30.19R
NUCLA          CLOUDY    73  52  46 SE13G28   30.29S
$$

COZ017>023-064>068-250600-
...SOUTHWEST COLORADO...

CITY           SKY/WX    TMP DP  RH WIND       PRES   REMARKS
DURANGO        MOCLDY    68  54  60 CALM      30.29R
CORTEZ         MOCLDY    72  55  55 NE9       30.27R
PAGOSA SPRINGS CLOUDY    70  46  42 NW6       30.38R
TELLURIDE      NOT AVBL
WOLF CREEK PAS NOT AVBL
$$

COZ009-010-012-014-032>034-037-058>063-250600-
...CENTRAL COLORADO...

CITY           SKY/WX    TMP DP  RH WIND       PRES   REMARKS
ASPEN          MOCLDY    60  50  69 SW3       30.37R
BUENA VISTA    CLEAR     58  52  81 NW5       30.38S
COPPER MTN     PTCLDY    54  37  54 SW6       30.69S
BERTHOUD PASS  FAIR      46  32  57 NW16      30.72S
COTTONWOOD PAS CLEAR     61  43  51 NW12G22   30.51F
GUNNISON       MOCLDY    59  48  67 N7        30.42S
KREMMLING      CLOUDY    66  46  48 W23G35    30.33R
LEADVILLE      MOCLDY    53  42  66 E3        30.52R
MONARCH PASS   PTCLDY    46  41  81 W23       30.79S
SALIDA         CLEAR    N/A N/A N/A CALM      30.41F
SUNLIGHT       MOCLDY    54  46  76 CALM      30.61S
WILKERSON PASS CLOUDY    54  43  66 W10G16    30.64S
$$

COZ069>075-250600-
...SAN LUIS VALLEY/SANGRE DE CRISTO MOUNTAINS...

CITY           SKY/WX    TMP DP  RH WIND       PRES   REMARKS
ALAMOSA        CLOUDY    62  51  67 S5        30.35R
LA VETA PASS   MOCLDY    57  41  54 W3        30.54R
SAGUACHE       MOCLDY    61  52  72 W12       30.39R
$$

COZ035-036-038>040-250600-
...NORTHERN COLORADO FRONT RANGE...

CITY           SKY/WX    TMP DP  RH WIND       PRES   REMARKS
DENVER INTL AP PTCLDY    71  52  50 SW8       30.10S
DMNS CITY PARK   N/A     72  53  50 S7G13     30.08F
AURORA         MOCLDY    70  53  53 SW13      30.12S
FRONT RANGE AP NOT AVBL
ERIE MUNI ARPT PTCLDY    74  52  45 S9        30.06F
BOULDER MUN AP PTCLDY    75  50  41 S7        30.07S
CENTENNIAL     MOCLDY    70  50  49 S9        30.13S
BROOMFIELD     NOT AVBL
FORT COLLINS   MOCLDY    75  54  46 S9        30.06R
LONGMONT       MOCLDY    79  51  36 S8        30.06F
$$

COZ041-046-047-076>085-087-088-250600-
...PIKES PEAK/PALMER DIVIDE AND SOUTHERN FOOTHILLS...

CITY           SKY/WX    TMP DP  RH WIND       PRES   REMARKS
COLO. SPRINGS  MOCLDY    70  51  51 N16       30.16F
A. F. ACADEMY  MOCLDY    64  55  71 N9        30.20F
ELLICOTT       MOCLDY    69  52  54 N8        30.15R
FALCON         MOCLDY    66  51  57 NW5       30.23F
FORT CARSON    MOCLDY    71  54  56 N12       30.13F
LIMON          CLOUDY    69  56  62 CALM      30.07F
MONUMENT HILL  CLOUDY    61  52  72 S8        30.23F
TRINIDAD       MOCLDY    81  45  28 NE7       30.16R
$$

COZ042>045-048>051-090-091-250600-
...NORTHEAST COLORADO...

CITY           SKY/WX    TMP DP  RH WIND       PRES   REMARKS
GREELEY ARPT   PTCLDY    73  54  49 SW9       30.04F
AKRON          MOCLDY    75  53  46 SW13      30.03S
BURLINGTON     CLOUDY    80  51  36 NW14      29.99R
WRAY             N/A     72  61  67 SW13G18   29.98R
STERLING       MOCLDY    73  61  64 SW12      29.96R
HOLYOKE        PTCLDY    68  63  83 W10       29.93R
FORT MORGAN    MOCLDY    71  54  54 SW3       30.03S
$$

COZ086-089-092>099-250600-
...SOUTHEAST COLORADO...

CITY           SKY/WX    TMP DP  RH WIND       PRES   REMARKS
PUEBLO         CLOUDY    81  50  33 NW8       30.03S
LA JUNTA       CLOUDY    86  48  26 N17G29    29.96R
LAMAR          MOCLDY    88  44  21 S23G30    29.89F
SPRINGFIELD      N/A     78  52  40 S23       30.04S
$$



USA.gov is the U.S. government's official web portal to all federal, state and local government web resources and services.